Location: Newark
(48.1500°N, 2.9667°W)
Time: 04:42:44
(UTC+00:00)

Transit 2A - Pass Details

Date: 30 January 2020
Orbit: 600 x 959 km, 66.7° (Epoch: 19 February)

Event Time Altitude Azimuth Distance (km) Brightness Sun altitude
Rises 20:07:42 0° 242° (WSW) 2,861 9.7 -30.1°
Reaches altitude 10° 20:10:09 10° 253° (WSW) 1,946 8.9 -30.5°
Enters shadow 20:13:29 30° 302° (WNW) 1,095 7.3 -31.0°
Maximum altitude 20:14:01 31° 317° (NW) 1,073 - -31.1°
Drops below altitude 10° 20:17:56 10° 20° (NNE) 1,975 - -31.7°
Sets 20:20:27 0° 31° (NNE) 2,912 - -32.2°
